| time (UTC) | temp F | wind direction | speed knots | gust knots | rain 1hr in | rain 24hr in | rain mn in | humidity % | barometer mb |
| 20260504221555 | 55 | 11 | 0.0 | 1.7 | 0.00 | 0.05 | 0.00 | 91 | 1015.2 |
| 20260504221054 | 55 | 11 | 0.0 | 2.6 | 0.00 | 0.05 | 0.00 | 91 | 1015.0 |
| 20260504220555 | 55 | 11 | 0.9 | 2.6 | 0.00 | 0.05 | 0.00 | 90 | 1015.0 |
| 20260504220053 | 56 | 11 | 0.0 | 2.6 | 0.00 | 0.05 | 0.05 | 90 | 1015.0 |
| 20260504215552 | 56 | 11 | 0.0 | 2.6 | 0.00 | 0.05 | 0.05 | 90 | 1015.1 |
| 20260504215056 | 56 | 11 | 0.0 | 0.0 | 0.00 | 0.05 | 0.05 | 90 | 1015.0 |
| 20260504214551 | 56 | 11 | 0.0 | 0.0 | 0.00 | 0.05 | 0.05 | 90 | 1015.1 |
| 20260504214051 | 56 | 11 | 0.0 | 0.0 | 0.00 | 0.05 | 0.05 | 90 | 1015.2 |
| 20260504213552 | 56 | 11 | 0.0 | 0.0 | 0.00 | 0.05 | 0.05 | 90 | 1015.1 |
| 20260504213119 | 56 | 11 | 0.0 | 0.0 | 0.00 | 0.05 | 0.05 | 90 | 1015.2 |
| 20260504212550 | 56 | 11 | 0.0 | 0.0 | 0.00 | 0.05 | 0.05 | 90 | 1015.3 |
| 20260504212052 | 56 | 11 | 0.0 | 0.0 | 0.00 | 0.05 | 0.05 | 90 | 1015.4 |
| 20260504211649 | 56 | 11 | 0.0 | 0.0 | 0.00 | 0.05 | 0.05 | 90 | 1015.3 |
| 20260504211049 | 56 | 11 | 0.0 | 0.0 | 0.00 | 0.05 | 0.05 | 90 | 1015.4 |
| 20260504210549 | 56 | 11 | 0.0 | 0.0 | 0.00 | 0.05 | 0.05 | 90 | 1015.6 |
| 20260504210050 | 57 | 11 | 0.0 | 0.0 | 0.00 | 0.05 | 0.05 | 90 | 1015.6 |
| 20260504205549 | 57 | 11 | 0.0 | 0.0 | 0.00 | 0.05 | 0.05 | 90 | 1015.6 |
| 20260504205048 | 57 | 11 | 0.0 | 0.0 | 0.00 | 0.05 | 0.05 | 90 | 1015.7 |
| 20260504204552 | 57 | 11 | 0.0 | 0.0 | 0.00 | 0.05 | 0.05 | 90 | 1015.7 |
| 20260504204050 | 57 | 11 | 0.0 | 0.0 | 0.00 | 0.05 | 0.05 | 90 | 1015.8 |
| 20260504203550 | 57 | 11 | 0.0 | 0.0 | 0.00 | 0.05 | 0.05 | 90 | 1015.8 |
| 20260504203059 | 57 | 11 | 0.0 | 0.0 | 0.00 | 0.05 | 0.05 | 90 | 1015.9 |
| 20260504202548 | 57 | 11 | 0.0 | 0.9 | 0.00 | 0.05 | 0.05 | 90 | 1015.8 |
| 20260504202048 | 57 | 11 | 0.0 | 0.9 | 0.00 | 0.05 | 0.05 | 90 | 1015.7 |
| 20260504201548 | 57 | 11 | 0.0 | 0.9 | 0.00 | 0.05 | 0.05 | 89 | 1015.7 |
| 20260504201047 | 57 | 11 | 0.0 | 1.7 | 0.00 | 0.05 | 0.05 | 89 | 1015.6 |
| 20260504200547 | 57 | 11 | 0.0 | 2.6 | 0.00 | 0.05 | 0.05 | 89 | 1015.6 |
| 20260504200050 | 57 | 11 | 0.9 | 2.6 | 0.00 | 0.05 | 0.05 | 89 | 1015.5 |
| 20260504195547 | 57 | 126 | 0.0 | 1.7 | 0.00 | 0.05 | 0.05 | 89 | 1015.6 |
| 20260504195046 | 57 | 126 | 0.0 | 1.7 | 0.00 | 0.05 | 0.05 | 89 | 1015.5 |
| 20260504194559 | 57 | 127 | 0.0 | 1.7 | 0.00 | 0.05 | 0.05 | 89 | 1015.6 |
| 20260504194046 | 57 | 127 | 0.0 | 0.0 | 0.00 | 0.05 | 0.05 | 89 | 1015.6 |
| 20260504193549 | 57 | 127 | 0.0 | 0.0 | 0.00 | 0.05 | 0.05 | 89 | 1015.6 |
| 20260504193056 | 57 | 127 | 0.0 | 0.0 | 0.00 | 0.05 | 0.05 | 89 | 1015.6 |
| 20260504192546 | 57 | 127 | 0.0 | 0.0 | 0.00 | 0.05 | 0.05 | 89 | 1015.5 |
| 20260504192046 | 57 | 127 | 0.0 | 0.0 | 0.00 | 0.05 | 0.05 | 89 | 1015.5 |
| 20260504191546 | 57 | 127 | 0.0 | 0.0 | 0.00 | 0.05 | 0.05 | 89 | 1015.4 |
| 20260504191046 | 58 | 127 | 0.0 | 0.0 | 0.00 | 0.05 | 0.05 | 88 | 1015.5 |
| 20260504190550 | 58 | 127 | 0.0 | 0.9 | 0.00 | 0.05 | 0.05 | 89 | 1015.4 |
| 20260504190053 | 58 | 127 | 0.0 | 0.9 | 0.00 | 0.05 | 0.05 | 89 | 1015.4 |
| 20260504185544 | 58 | 127 | 0.0 | 0.9 | 0.00 | 0.05 | 0.05 | 88 | 1015.3 |
| 20260504185044 | 58 | 127 | 0.0 | 0.9 | 0.00 | 0.05 | 0.05 | 88 | 1015.4 |
| 20260504184546 | 58 | 127 | 0.0 | 0.9 | 0.00 | 0.05 | 0.05 | 88 | 1015.5 |
| 20260504184044 | 58 | 127 | 0.0 | 0.9 | 0.00 | 0.05 | 0.05 | 88 | 1015.5 |
| 20260504183547 | 58 | 127 | 0.0 | 0.9 | 0.00 | 0.05 | 0.05 | 88 | 1015.6 |
| 20260504183044 | 58 | 127 | 0.0 | 0.9 | 0.00 | 0.05 | 0.05 | 88 | 1015.6 |
| 20260504182546 | 58 | 127 | 0.0 | 1.7 | 0.00 | 0.05 | 0.05 | 88 | 1015.6 |
| 20260504182044 | 58 | 127 | 0.0 | 1.7 | 0.00 | 0.05 | 0.05 | 88 | 1015.8 |
| 20260504181545 | 58 | 127 | 0.0 | 1.7 | 0.01 | 0.05 | 0.05 | 88 | 1015.8 |
| 20260504181044 | 58 | 127 | 0.0 | 1.7 | 0.01 | 0.05 | 0.05 | 87 | 1015.9 |
| 20260504180546 | 58 | 127 | 0.0 | 2.6 | 0.01 | 0.05 | 0.05 | 87 | 1015.8 |
| 20260504180044 | 59 | 127 | 0.0 | 3.5 | 0.01 | 0.05 | 0.05 | 87 | 1015.9 |
| 20260504175542 | 59 | 134 | 0.9 | 3.5 | 0.01 | 0.05 | 0.05 | 87 | 1015.8 |
| 20260504175043 | 59 | 135 | 0.0 | 0.0 | 0.01 | 0.05 | 0.05 | 87 | 1015.9 |
| 20260504174543 | 59 | 135 | 0.0 | 0.0 | 0.01 | 0.05 | 0.05 | 87 | 1016.0 |
| 20260504174042 | 59 | 95 | 0.0 | 1.7 | 0.01 | 0.05 | 0.05 | 86 | 1016.0 |
| 20260504173542 | 59 | 24 | 0.0 | 7.0 | 0.01 | 0.05 | 0.05 | 86 | 1015.8 |
| 20260504173048 | 59 | 329 | 1.7 | 7.0 | 0.02 | 0.05 | 0.05 | 85 | 1015.4 |
| 20260504172540 | 59 | 315 | 2.6 | 4.3 | 0.02 | 0.05 | 0.05 | 85 | 1015.5 |
| 20260504172044 | 60 | 194 | 0.0 | 0.0 | 0.02 | 0.05 | 0.05 | 85 | 1016.0 |
| 20260504171540 | 60 | 194 | 0.0 | 0.0 | 0.02 | 0.04 | 0.04 | 84 | 1016.1 |
| 20260504171042 | 60 | 194 | 0.0 | 0.0 | 0.02 | 0.04 | 0.04 | 84 | 1016.2 |
| 20260504170539 | 60 | 194 | 0.0 | 0.0 | 0.02 | 0.04 | 0.04 | 84 | 1016.3 |
| 20260504151035 | 64 | 314 | 0.9 | 5.2 | 0.00 | 0.00 | 0.00 | 69 | 1016.0 |
| 20260504150535 | 64 | 13 | 0.0 | 4.3 | 0.00 | 0.00 | 0.00 | 68 | 1016.0 |
| 20260504141033 | 68 | 294 | 0.9 | 4.3 | 0.00 | 0.00 | 0.00 | 56 | 1015.6 |
| 20260504140533 | 68 | 327 | 0.0 | 4.3 | 0.00 | 0.00 | 0.00 | 56 | 1015.6 |
| 20260504130531 | 69 | 236 | 0.9 | 3.5 | 0.00 | 0.00 | 0.00 | 50 | 1015.5 |
| 20260504110525 | 70 | 320 | 0.9 | 4.3 | 0.00 | 0.00 | 0.00 | 48 | 1015.7 |
| 20260504100515 | 68 | 316 | 0.0 | 1.7 | 0.00 | 0.00 | 0.00 | 48 | 1016.3 |
| 20260504081557 | 62 | 300 | 0.9 | 3.5 | 0.00 | 0.00 | 0.00 | 67 | 1017.1 |
| 20260504081057 | 61 | 279 | 0.9 | 2.6 | 0.00 | 0.00 | 0.00 | 68 | 1017.1 |
| 20260504080556 | 61 | 322 | 0.9 | 3.5 | 0.00 | 0.00 | 0.00 | 69 | 1017.1 |
| 20260504050530 | 52 | 240 | 0.0 | 3.5 | 0.00 | 0.00 | 0.00 | 79 | 1017.0 |
| 20260504045524 | 51 | 313 | 0.0 | 2.6 | 0.00 | 0.00 | 0.00 | 79 | 1017.0 |
| 20260504045023 | 51 | 313 | 0.0 | 2.6 | 0.00 | 0.00 | 0.00 | 79 | 1017.0 |
| 20260504044536 | 51 | 315 | 0.0 | 2.6 | 0.00 | 0.00 | 0.00 | 80 | 1017.0 |
| 20260504044024 | 51 | 321 | 0.9 | 3.5 | 0.00 | 0.00 | 0.00 | 80 | 1017.0 |
| 20260504043522 | 51 | 320 | 0.9 | 3.5 | 0.00 | 0.00 | 0.00 | 79 | 1017.0 |
| 20260504043022 | 51 | 309 | 0.0 | 2.6 | 0.00 | 0.00 | 0.00 | 79 | 1016.9 |
| 20260504042519 | 51 | 315 | 0.0 | 3.5 | 0.00 | 0.00 | 0.00 | 79 | 1017.0 |
| 20260504042019 | 51 | 321 | 0.9 | 3.5 | 0.00 | 0.00 | 0.00 | 79 | 1017.0 |
| 20260504041519 | 51 | 316 | 1.7 | 3.5 | 0.00 | 0.00 | 0.00 | 79 | 1017.1 |
| 20260504041119 | 51 | 319 | 0.0 | 3.5 | 0.00 | 0.00 | 0.00 | 79 | 1017.1 |
| 20260504040521 | 51 | 251 | 0.0 | 0.0 | 0.00 | 0.00 | 0.00 | 78 | 1017.0 |
| 20260504040019 | 51 | 246 | 0.0 | 0.0 | 0.00 | 0.00 | 0.00 | 78 | 1017.1 |
| 20260504035517 | 51 | 246 | 0.0 | 1.7 | 0.00 | 0.00 | 0.00 | 78 | 1017.1 |
| 20260504035017 | 51 | 254 | 0.0 | 1.7 | 0.00 | 0.00 | 0.00 | 78 | 1017.1 |
| 20260504034517 | 51 | 216 | 0.0 | 2.6 | 0.00 | 0.00 | 0.00 | 78 | 1017.0 |
| 20260504034015 | 52 | 218 | 0.0 | 3.5 | 0.00 | 0.00 | 0.00 | 78 | 1017.1 |
| 20260504033516 | 52 | 228 | 0.9 | 3.5 | 0.00 | 0.00 | 0.00 | 78 | 1017.1 |
| 20260504033016 | 52 | 309 | 0.9 | 3.5 | 0.00 | 0.00 | 0.00 | 78 | 1017.3 |
| 20260504032514 | 52 | 314 | 1.7 | 4.3 | 0.00 | 0.00 | 0.00 | 78 | 1017.4 |
| 20260504032013 | 52 | 272 | 1.7 | 5.2 | 0.00 | 0.00 | 0.00 | 78 | 1017.4 |
| 20260504031513 | 52 | 326 | 2.6 | 5.2 | 0.00 | 0.00 | 0.00 | 78 | 1017.5 |
| 20260504031011 | 52 | 322 | 2.6 | 5.2 | 0.00 | 0.00 | 0.00 | 78 | 1017.6 |
| 20260504030511 | 52 | 299 | 0.0 | 2.6 | 0.00 | 0.00 | 0.00 | 78 | 1017.5 |
| 20260504030011 | 52 | 300 | 0.9 | 2.6 | 0.00 | 0.00 | 0.00 | 77 | 1017.6 |
| 20260504025510 | 52 | 286 | 0.0 | 4.3 | 0.00 | 0.00 | 0.00 | 77 | 1017.7 |
| 20260504025009 | 52 | 312 | 0.9 | 5.2 | 0.00 | 0.00 | 0.00 | 77 | 1017.8 |
| 20260504024516 | 53 | 315 | 2.6 | 4.3 | 0.00 | 0.00 | 0.00 | 77 | 1017.7 |
| 20260504024012 | 53 | 321 | 0.9 | 3.5 | 0.00 | 0.00 | 0.00 | 77 | 1017.8 |
| 20260504023512 | 53 | 316 | 0.0 | 2.6 | 0.00 | 0.00 | 0.00 | 76 | 1017.9 |
| 20260504023007 | 53 | 316 | 0.0 | 4.3 | 0.00 | 0.00 | 0.00 | 76 | 1017.8 |
| 20260504022510 | 53 | 317 | 0.9 | 4.3 | 0.00 | 0.00 | 0.00 | 76 | 1017.9 |
| 20260504022005 | 53 | 320 | 0.0 | 3.5 | 0.00 | 0.00 | 0.00 | 76 | 1017.9 |
| 20260504021505 | 53 | 305 | 0.9 | 2.6 | 0.00 | 0.00 | 0.00 | 76 | 1017.8 |
| 20260504021004 | 53 | 311 | 0.9 | 3.5 | 0.00 | 0.00 | 0.00 | 76 | 1017.7 |
| 20260504020504 | 54 | 305 | 0.9 | 4.3 | 0.00 | 0.00 | 0.00 | 76 | 1017.8 |
| 20260504020008 | 54 | 315 | 1.7 | 4.3 | 0.00 | 0.00 | 0.00 | 76 | 1017.7 |
| 20260504015503 | 54 | 338 | 1.7 | 3.5 | 0.00 | 0.00 | 0.00 | 75 | 1017.6 |
| 20260504015002 | 54 | 287 | 0.0 | 2.6 | 0.00 | 0.00 | 0.00 | 75 | 1017.6 |
| 20260504014502 | 54 | 286 | 0.0 | 1.7 | 0.00 | 0.00 | 0.00 | 75 | 1017.6 |
| 20260504014003 | 54 | 273 | 0.0 | 1.7 | 0.00 | 0.00 | 0.00 | 74 | 1017.7 |
| 20260504013500 | 54 | 273 | 0.0 | 2.6 | 0.00 | 0.00 | 0.00 | 74 | 1017.6 |
| 20260504013100 | 55 | 273 | 0.0 | 2.6 | 0.00 | 0.00 | 0.00 | 73 | 1017.7 |
| 20260504012559 | 55 | 268 | 0.0 | 3.5 | 0.00 | 0.00 | 0.00 | 72 | 1017.6 |
| 20260504012058 | 55 | 304 | 0.9 | 3.5 | 0.00 | 0.00 | 0.00 | 72 | 1017.6 |
| 20260504011558 | 56 | 321 | 0.9 | 3.5 | 0.00 | 0.00 | 0.00 | 71 | 1017.5 |
| 20260504011056 | 56 | 321 | 0.9 | 4.3 | 0.00 | 0.00 | 0.00 | 71 | 1017.5 |
| 20260504010556 | 56 | 319 | 0.9 | 3.5 | 0.00 | 0.00 | 0.00 | 70 | 1017.5 |
| 20260504010059 | 56 | 315 | 0.9 | 3.5 | 0.00 | 0.00 | 0.00 | 70 | 1017.6 |
| 20260504005555 | 56 | 315 | 1.7 | 3.5 | 0.00 | 0.00 | 0.00 | 69 | 1017.6 |
| 20260504005057 | 56 | 304 | 0.9 | 3.5 | 0.00 | 0.00 | 0.00 | 69 | 1017.7 |
| 20260504004554 | 56 | 310 | 0.0 | 1.7 | 0.00 | 0.00 | 0.00 | 69 | 1017.5 |
| 20260504004052 | 57 | 310 | 0.0 | 1.7 | 0.00 | 0.00 | 0.00 | 68 | 1017.6 |
| 20260504003555 | 57 | 310 | 0.0 | 1.7 | 0.00 | 0.00 | 0.00 | 68 | 1017.6 |
| 20260504003052 | 57 | 310 | 0.0 | 2.6 | 0.00 | 0.00 | 0.00 | 67 | 1017.6 |
| 20260504002550 | 58 | 310 | 0.0 | 2.6 | 0.00 | 0.00 | 0.00 | 67 | 1017.6 |
| 20260504002050 | 58 | 310 | 0.9 | 2.6 | 0.00 | 0.00 | 0.00 | 66 | 1017.6 |
| 20260504001608 | 58 | 321 | 0.0 | 3.5 | 0.00 | 0.00 | 0.00 | 66 | 1017.7 |
| 20260504001049 | 58 | 321 | 0.0 | 3.5 | 0.00 | 0.00 | 0.00 | 65 | 1017.8 |
| 20260504000550 | 58 | 304 | 0.0 | 2.6 | 0.00 | 0.00 | 0.00 | 65 | 1017.7 |
| 20260504000049 | 58 | 303 | 0.0 | 2.6 | 0.00 | 0.00 | 0.00 | 65 | 1017.7 |
| 20260503235548 | 58 | 302 | 0.0 | 2.6 | 0.00 | 0.00 | 0.00 | 65 | 1017.6 |
| 20260503235046 | 58 | 292 | 0.0 | 0.0 | 0.00 | 0.00 | 0.00 | 65 | 1017.6 |
| 20260503234546 | 58 | 292 | 0.0 | 0.0 | 0.00 | 0.00 | 0.00 | 65 | 1017.6 |
| 20260503234046 | 58 | 292 | 0.0 | 0.0 | 0.00 | 0.00 | 0.00 | 65 | 1017.5 |
| 20260503233546 | 58 | 303 | 0.0 | 0.0 | 0.00 | 0.00 | 0.00 | 65 | 1017.6 |
| 20260503233045 | 59 | 303 | 0.0 | 1.7 | 0.00 | 0.00 | 0.00 | 65 | 1017.6 |
| 20260503232549 | 59 | 303 | 0.0 | 1.7 | 0.00 | 0.00 | 0.00 | 65 | 1017.6 |
| 20260503232045 | 59 | 304 | 0.0 | 1.7 | 0.00 | 0.00 | 0.00 | 65 | 1017.6 |
| 20260503231545 | 59 | 303 | 0.0 | 0.9 | 0.00 | 0.00 | 0.00 | 65 | 1017.6 |
| 20260503231045 | 59 | 315 | 0.0 | 0.9 | 0.00 | 0.00 | 0.00 | 64 | 1017.6 |
| 20260503230544 | 59 | 315 | 0.0 | 2.6 | 0.00 | 0.00 | 0.00 | 64 | 1017.6 |
| 20260503230044 | 59 | 319 | 0.9 | 4.3 | 0.00 | 0.00 | 0.00 | 63 | 1017.6 |
| 20260503225644 | 59 | 323 | 0.9 | 4.3 | 0.00 | 0.00 | 0.00 | 63 | 1017.6 |
| 20260503225043 | 59 | 323 | 1.7 | 3.5 | 0.00 | 0.00 | 0.00 | 63 | 1017.6 |
| 20260503224543 | 58 | 107 | 0.0 | 0.0 | 0.00 | 0.00 | 0.00 | 64 | 1017.6 |
| 20260503224043 | 59 | 107 | 0.0 | 0.0 | 0.00 | 0.00 | 0.00 | 64 | 1017.5 |
| 20260503223542 | 59 | 107 | 0.0 | 0.0 | 0.00 | 0.00 | 0.00 | 64 | 1017.6 |
| 20260503223043 | 59 | 107 | 0.0 | 0.0 | 0.00 | 0.00 | 0.00 | 64 | 1017.6 |
| 20260503222542 | 59 | 107 | 0.0 | 0.0 | 0.00 | 0.00 | 0.00 | 65 | 1017.5 |
| 20260503222039 | 59 | 107 | 0.0 | 0.0 | 0.00 | 0.00 | 0.00 | 63 | 1017.5 |